#timestamp,LO_Frequency,Hit,StdDev 
1647367215.6,286046996.8,N
1647367235.5,286046999.6,N
1647367255.3,286046999.2,N
1647367275.2,286046999.3,N
1647367295.9,286046999.3,N
1647367315.7,286046999.2,N
1647367335.6,286046998.4,N
1647367355.4,286046999.4,N
1647367375.2,286046998.6,N
1647367395.1,286046999.1,N
1647367396.0,286046999.1,N
1647367415.8,286046998.8,N
1647367435.7,286046998.1,N
1647367455.5,286046998.5,N
1647367475.3,286046998.9,N
1647367495.2,286046999.1,N
1647367515.9,286046998.5,N
1647367535.7,286046998.4,N
1647367555.6,286046998.6,N
1647367575.4,286046998.2,N
1647367595.2,286046998.7,N
1647367615.1,286046998.7,N
1647367616.0,286046998.7,N
1647367635.8,286046998.5,N
1647367655.7,286046999.6,N
1647367675.5,286046996.6,Y
1647367695.3,286046999.1,P
1647367715.2,286046999.6,N
1647367735.0,286046997.0,P
1647367735.9,286046997.0,Y
1647367755.8,286046998.2,P
1647367775.6,286046998.5,P
1647367795.4,286046998.2,P
1647367815.3,286047001.2,Y
1647367835.1,286047002.5,P
1647367855.8,286047002.6,N
1647367875.7,286047002.4,N
1647367895.5,286047002.0,N
1647367915.3,286047002.8,N
1647367935.2,286047002.1,N
1647367955.0,286047004.4,Y
1647367955.9,286047004.4,P
1647367975.8,286046999.8,N
1647367995.6,286047002.5,N
1647368015.4,286046999.9,N
1647368035.3,286047000.2,N
1647368055.1,286047000.0,N
1647368075.8,286047002.1,N
1647368095.7,286047000.3,N
1647368115.5,286046999.7,N
1647368135.4,286047000.2,N
1647368155.2,286047001.1,N
1647368175.0,286047000.0,N
1647368175.9,286047000.0,N
1647368195.8,286047000.2,N
1647368215.6,286046999.8,N
1647368235.4,286047000.3,N
1647368255.3,286047000.0,N
1647368275.1,286046998.3,N
1647368295.9,286046999.7,N
1647368315.7,286047000.9,N
1647368335.5,286047000.7,N
1647368355.4,286047000.2,N
1647368375.2,286047002.8,N
1647368395.0,286047002.2,N
1647368395.9,286047002.2,N
1647368415.8,286047000.4,N
1647368435.6,286047000.3,N
1647368455.5,286047001.2,N
1647368475.3,286047002.4,N
1647368495.1,286047002.0,N
1647368515.9,286046999.9,N
1647368535.7,286047001.1,N
1647368555.5,286047000.8,N
1647368575.4,286047000.8,N
1647368595.2,286047000.8,N
1647368615.0,286047001.2,N
1647368615.9,286047001.2,N
1647368635.8,286046998.4,N
1647368655.6,286046996.9,Y
1647368675.5,286046999.2,P
1647368695.3,286046997.0,P
1647368715.1,286046998.9,N
1647368735.9,286046998.3,N
1647368755.7,286046999.0,N
1647368775.5,286046996.9,N
1647368795.4,286046997.7,N
1647368815.2,286046995.7,Y
1647368835.1,286046998.9,P
1647368836.0,286046998.9,P
1647368855.8,286046996.7,P
1647368875.6,286046999.4,N
1647368895.5,286046998.3,N
1647368915.3,286046998.8,N
1647368935.1,286047000.6,N
1647368955.9,286046996.6,Y
1647368975.7,286047000.5,P
1647368995.6,286046999.8,N
1647369015.4,286047000.3,N
1647369035.2,286046999.9,N
1647369055.1,286046998.3,N
1647369056.0,286046998.3,N
1647369075.8,286046998.2,N
1647369095.7,286047000.1,N
1647369115.5,286047001.2,N
1647369135.3,286046998.9,N
1647369155.2,286047001.2,N
1647369175.9,286046998.6,N
1647369195.7,286047000.4,N
1647369215.6,286047000.7,N
1647369235.4,286047000.9,N
1647369255.2,286047000.1,N
1647369275.1,286047000.1,N
1647369276.0,286047000.1,N
1647369295.8,286047002.3,N
1647369315.7,286047002.6,N
1647369335.5,286047002.1,N
1647369355.3,286047002.2,N
1647369375.2,286047002.5,N
1647369395.0,286047001.4,N
1647369395.9,286047001.4,N
1647369415.7,286047003.1,N
1647369435.6,286047000.1,N
1647369455.4,286047002.3,N
1647369475.3,286047002.6,N
1647369495.1,286047002.7,N
1647369496.0,286047002.7,N
1647369515.8,286047000.1,N
1647369535.7,286046999.8,N
1647369555.5,286047002.3,N
1647369575.3,286047001.8,N
1647369595.2,286047004.4,Y
1647369615.0,286047002.5,P
1647369615.9,286047002.5,P
1647369635.8,286047000.2,N
1647369655.6,286047001.1,N
1647369675.4,286047001.1,N
1647369695.3,286047000.9,N
1647369715.1,286047002.7,Y
1647369735.9,286046998.9,P
1647369755.7,286046999.0,N
1647369775.5,286046998.9,N
1647369795.4,286046999.4,N
1647369815.2,286046998.3,N
1647369835.0,286047001.1,N
1647369835.9,286047001.1,N
1647369855.8,286047000.9,N
1647369875.6,286046997.3,N
1647369895.4,286046998.5,N
1647369915.3,286046996.7,N
1647369935.1,286046996.5,N
1647369955.9,286046999.2,N
1647369975.7,286046997.1,N
1647369995.5,286046999.2,N
1647370015.4,286046996.7,N
1647370035.2,286046997.2,N
1647370055.0,286046996.9,N
1647370055.9,286046996.9,N
1647370075.8,286046997.0,N
1647370095.6,286046999.4,N
1647370115.5,286046996.5,N
1647370135.3,286046997.4,N
1647370155.1,286046999.1,N
1647370175.9,286046998.6,N
1647370195.7,286046998.5,N
1647370215.5,286046999.3,N
1647370235.4,286046998.5,N
1647370255.2,286047000.6,N
1647370275.1,286046996.6,N
1647370276.0,286046996.6,N
1647370295.8,286046996.6,N
1647370315.6,286046999.5,N
1647370335.5,286046998.9,N
1647370355.3,286046997.3,N
1647370375.1,286046996.9,N
1647370395.9,286046996.9,N
1647370415.7,286046999.5,N
1647370435.6,286046997.0,N
1647370455.4,286046998.3,N
1647370475.2,286046998.4,N
1647370495.1,286046998.8,N
1647370496.0,286046998.8,N
1647370515.8,286046997.3,N
1647370535.6,286046999.1,N
1647370555.5,286046996.5,Y
1647370575.3,286046998.7,P
1647370595.2,286046998.8,P
1647370615.9,286046998.2,P
1647370635.7,286047000.9,N
1647370685.6,286046998.5,E
1647370695.5,286046999.8,N
1647370715.4,286047002.6,P
1647370735.2,286047000.8,N
1647370755.0,286046999.0,N
1647370755.9,286046999.0,N
1647370775.8,286047000.9,N
1647370795.6,286047002.8,N
